• în Republica Moldova
  • Lista ţărilor
  • Pe 7 zile
  • Temperatura apei
  • Hartă satelitară
  • Meteo pe hartă
  • Widget-uri
  • user-avatar
    Intrare

    Meteo pe oră la Sankt Polten

    Astăzi, 24 Noiembrie, Vineri

    Timp Temperatura Precipitaţii Vânt Presiune Umiditate
    00:00 +7°C° 0 mm 1 m/s 737 mmHg 72%
    01:00 +7°C° 0 mm 1 m/s 737 mmHg 72%
    02:00 +7°C° 0 mm 1 m/s 737 mmHg 73%
    03:00 +7°C° 0 mm 1 m/s 737 mmHg 74%
    04:00 +7°C° 0 mm 1 m/s 737 mmHg 75%
    05:00 +7°C° 0 mm 1 m/s 737 mmHg 75%
    06:00 +7°C° 0 mm 1 m/s 737 mmHg 76%
    07:00 +7°C° 0 mm 1 m/s 737 mmHg 77%
    08:00 +9°C° 0 mm 1 m/s 737 mmHg 73%
    09:00 +10°C° 0 mm 1 m/s 737 mmHg 70%
    10:00 +12°C° 0 mm 1 m/s 737 mmHg 66%
    11:00 +13°C° 0 mm 1 m/s 737 mmHg 65%
    12:00 +14°C° 0 mm 1 m/s 736 mmHg 63%
    13:00 +15°C° 0 mm 1 m/s 736 mmHg 61%
    14:00 +13°C° 0 mm 1 m/s 736 mmHg 67%
    15:00 +12°C° 0 mm 1 m/s 736 mmHg 73%
    16:00 +10°C° 0 mm 1 m/s 736 mmHg 79%
    17:00 +10°C° 0 mm 1 m/s 736 mmHg 80%
    18:00 +9°C° 0 mm 1 m/s 736 mmHg 80%
    19:00 +8°C° 0 mm 1 m/s 736 mmHg 81%
    20:00 +8°C° 0 mm 1 m/s 736 mmHg 80%
    21:00 +8°C° 0 mm 1 m/s 736 mmHg 78%
    22:00 +8°C° 0 mm 1 m/s 736 mmHg 77%
    23:00 +8°C° 0 mm 1 m/s 735 mmHg 77%

    Mâine, 25 Noiembrie, Sâmbătă

    Timp Temperatura Precipitaţii Vânt Presiune Umiditate
    00:00 +7°C° 0 mm 1 m/s 735 mmHg 77%
    01:00 +7°C° 0 mm 1 m/s 735 mmHg 78%
    02:00 +7°C° 0 mm 1 m/s 734 mmHg 79%
    03:00 +7°C° 0 mm 1 m/s 734 mmHg 81%
    04:00 +6°C° 0 mm 1 m/s 733 mmHg 83%
    05:00 +6°C° 0 mm 1 m/s 732 mmHg 84%
    06:00 +6°C° 0 mm 1 m/s 732 mmHg 86%
    07:00 +6°C° 0 mm 1 m/s 731 mmHg 87%
    08:00 +7°C° 0 mm 1 m/s 731 mmHg 84%
    09:00 +7°C° 0 mm 2 m/s 730 mmHg 80%
    10:00 +8°C° 0 mm 2 m/s 729 mmHg 77%
    11:00 +9°C° 0 mm 2 m/s 729 mmHg 74%
    12:00 +10°C° 0 mm 2 m/s 729 mmHg 70%
    13:00 +12°C° 0 mm 2 m/s 728 mmHg 66%
    14:00 +10°C° 0 mm 2 m/s 728 mmHg 71%
    15:00 +9°C° 0 mm 2 m/s 729 mmHg 75%
    16:00 +9°C° 0 mm 3 m/s 729 mmHg 79%
    17:00 +8°C° 0,5 mm 3 m/s 730 mmHg 81%
    18:00 +7°C° 0,5 mm 4 m/s 730 mmHg 84%
    19:00 +6°C° 0,5 mm 5 m/s 731 mmHg 86%
    20:00 +6°C° 0,6 mm 4 m/s 732 mmHg 86%
    21:00 +6°C° 0,6 mm 4 m/s 732 mmHg 87%
    22:00 +5°C° 0,6 mm 3 m/s 733 mmHg 87%
    23:00 +5°C° 0,5 mm 3 m/s 733 mmHg 88%

    Poimâine, 26 Noiembrie, Duminică

    Timp Temperatura Precipitaţii Vânt Presiune Umiditate
    00:00 +5°C° 0,5 mm 3 m/s 734 mmHg 88%
    01:00 +4°C° 0,5 mm 3 m/s 734 mmHg 89%
    02:00 +4°C° 0,4 mm 3 m/s 735 mmHg 89%
    03:00 +4°C° 0,4 mm 3 m/s 735 mmHg 89%
    04:00 +4°C° 0,4 mm 3 m/s 735 mmHg 90%
    05:00 +3°C° 0,6 mm 3 m/s 736 mmHg 89%
    06:00 +3°C° 0,6 mm 3 m/s 736 mmHg 89%
    07:00 +3°C° 0,6 mm 3 m/s 737 mmHg 89%
    08:00 +3°C° 0,3 mm 3 m/s 737 mmHg 87%
    09:00 +3°C° 0,3 mm 3 m/s 738 mmHg 85%
    10:00 +3°C° 0,3 mm 4 m/s 739 mmHg 83%
    11:00 +3°C° 0 mm 4 m/s 739 mmHg 81%
    12:00 +3°C° 0 mm 4 m/s 739 mmHg 78%
    13:00 +2°C° 0 mm 5 m/s 739 mmHg 76%
    14:00 +1°C° 0 mm 4 m/s 740 mmHg 77%
    15:00 +1°C° 0 mm 4 m/s 740 mmHg 78%
    16:00 0°C° 0 mm 4 m/s 740 mmHg 78%
    17:00 0°C° 0 mm 4 m/s 741 mmHg 80%
    18:00 -1°C° 0 mm 4 m/s 741 mmHg 82%
    19:00 -2°C° 0 mm 4 m/s 742 mmHg 84%
    20:00 -2°C° 0 mm 4 m/s 742 mmHg 84%
    21:00 -2°C° 0 mm 4 m/s 742 mmHg 84%
    22:00 -2°C° 0 mm 4 m/s 743 mmHg 85%
    23:00 -2°C° 0 mm 4 m/s 743 mmHg 85%

    27 Noiembrie, Luni

    Timp Temperatura Precipitaţii Vânt Presiune Umiditate
    00:00 -2°C° 0 mm 4 m/s 743 mmHg 85%
    01:00 -2°C° 0 mm 4 m/s 743 mmHg 85%
    02:00 -2°C° 0 mm 4 m/s 743 mmHg 85%
    03:00 -1°C° 0 mm 3 m/s 743 mmHg 85%
    04:00 -1°C° 0 mm 3 m/s 743 mmHg 84%
    05:00 -1°C° 0 mm 3 m/s 743 mmHg 84%
    06:00 -2°C° 0 mm 3 m/s 743 mmHg 84%
    07:00 -2°C° 0 mm 3 m/s 743 mmHg 84%
    08:00 -1°C° 0 mm 3 m/s 743 mmHg 81%
    09:00 -1°C° 0 mm 4 m/s 743 mmHg 77%
    10:00 0°C° 0 mm 4 m/s 743 mmHg 73%
    11:00 0°C° 0 mm 4 m/s 742 mmHg 71%
    12:00 +1°C° 0 mm 4 m/s 742 mmHg 69%
    13:00 +1°C° 0 mm 4 m/s 742 mmHg 68%
    14:00 +1°C° 0 mm 3 m/s 741 mmHg 71%
    15:00 +1°C° 0 mm 3 m/s 741 mmHg 75%
    16:00 +1°C° 0 mm 2 m/s 741 mmHg 79%
    17:00 -1°C° 0 mm 2 m/s 741 mmHg 81%
    18:00 -1°C° 0 mm 2 m/s 741 mmHg 84%
    19:00 -2°C° 0 mm 2 m/s 741 mmHg 86%
    20:00 -2°C° 0 mm 2 m/s 741 mmHg 86%
    21:00 -2°C° 0 mm 2 m/s 741 mmHg 86%
    22:00 -2°C° 0 mm 2 m/s 741 mmHg 86%
    23:00 0°C° 0 mm 1 m/s 741 mmHg 85%

    28 Noiembrie, Marţi

    Timp Temperatura Precipitaţii Vânt Presiune Umiditate
    00:00 0°C° 0 mm 1 m/s 740 mmHg 84%
    01:00 0°C° 0 mm 1 m/s 740 mmHg 83%
    02:00 0°C° 0 mm 1 m/s 740 mmHg 81%
    03:00 0°C° 0 mm 1 m/s 739 mmHg 80%
    04:00 0°C° 0 mm 1 m/s 739 mmHg 78%
    05:00 0°C° 0 mm 1 m/s 739 mmHg 77%
    06:00 0°C° 0 mm 1 m/s 738 mmHg 76%
    07:00 0°C° 0 mm 1 m/s 738 mmHg 75%
    08:00 +1°C° 0 mm 1 m/s 738 mmHg 70%
    09:00 +3°C° 0 mm 1 m/s 738 mmHg 65%
    10:00 +4°C° 0 mm 1 m/s 738 mmHg 60%
    11:00 +5°C° 0 mm 1 m/s 737 mmHg 59%
    12:00 +6°C° 0 mm 1 m/s 736 mmHg 58%
    13:00 +7°C° 0 mm 1 m/s 736 mmHg 56%
    14:00 +6°C° 0 mm 1 m/s 735 mmHg 62%
    15:00 +4°C° 0 mm 1 m/s 735 mmHg 69%
    16:00 +3°C° 0 mm 1 m/s 735 mmHg 75%
    17:00 +3°C° 0 mm 1 m/s 735 mmHg 76%
    18:00 +2°C° 0 mm 1 m/s 734 mmHg 77%
    19:00 +2°C° 0 mm 1 m/s 734 mmHg 78%
    20:00 +2°C° 0 mm 1 m/s 734 mmHg 78%
    21:00 +1°C° 0 mm 1 m/s 734 mmHg 78%
    22:00 -1°C° 0 mm 2 m/s 733 mmHg 78%
    23:00 -1°C° 0 mm 2 m/s 733 mmHg 78%

    29 Noiembrie, Miercuri

    Timp Temperatura Precipitaţii Vânt Presiune Umiditate
    00:00 -1°C° 0 mm 2 m/s 733 mmHg 78%
    01:00 -1°C° 0 mm 2 m/s 732 mmHg 79%
    02:00 +1°C° 0 mm 1 m/s 732 mmHg 79%
    03:00 0°C° 0 mm 1 m/s 732 mmHg 79%
    04:00 0°C° 0 mm 1 m/s 732 mmHg 80%
    05:00 0°C° 0 mm 1 m/s 732 mmHg 80%
    06:00 0°C° 0 mm 1 m/s 732 mmHg 79%
    07:00 0°C° 0 mm 1 m/s 731 mmHg 79%
    08:00 +1°C° 0 mm 1 m/s 731 mmHg 75%
    09:00 +2°C° 0 mm 1 m/s 731 mmHg 71%
    10:00 +3°C° 0 mm 1 m/s 731 mmHg 68%
    11:00 +4°C° 0 mm 1 m/s 731 mmHg 65%
    12:00 +5°C° 0 mm 1 m/s 730 mmHg 63%
    13:00 +6°C° 0 mm 1 m/s 730 mmHg 60%
    14:00 +4°C° 0 mm 1 m/s 730 mmHg 67%
    15:00 +3°C° 0 mm 1 m/s 730 mmHg 73%
    16:00 +2°C° 0 mm 1 m/s 729 mmHg 80%
    17:00 +2°C° 0 mm 1 m/s 729 mmHg 82%
    18:00 +1°C° 0 mm 1 m/s 729 mmHg 83%
    19:00 +1°C° 0 mm 1 m/s 729 mmHg 85%
    20:00 +1°C° 0 mm 1 m/s 729 mmHg 85%
    21:00 +2°C° 0 mm 1 m/s 729 mmHg 85%
    22:00 +2°C° 0 mm 1 m/s 728 mmHg 85%
    23:00 +2°C° 0,1 mm 1 m/s 728 mmHg 87%
    Arată mai mult